Zurück zum Katalog

THOR ABLESTAR DEB

AktivLEO
NORAD 5826·DEBRIS·🇺🇸 United States

Gestartet Jun 29, 1961 von Cape Canaveral Space Force Station

Loading…

Nächste Überflüge (nächste 24 Stunden)

TLE

AktuellSource: Space-Track

Epoche: Sep 13, 2026, 23:21 UTC

1 05826U 61015KE  26256.97309892  .00000391  00000-0  32459-3 0  9991
2 05826  66.6777  92.7759 0077903 203.4177 156.3350 13.97650356283136

Verfolge THOR ABLESTAR DEB in Echtzeit mit AllMySat

Download on the App Store